When you browse on this site, cookies collect data to enhance your experience and personalize the content and advertising you see.
Visit our Privacy Policy to learn more. By continuing to use the site, you agree to this use of cookies and data.
  • In Hungary
  • List of Countries
  • For 7 days
  • Water Temperature
  • Weather Map
  • News
  • Weather Widgets
  • user-avatar
    Login

    Hourly Weather Demeshkino

    Today, 23 September, Monday

    Time Temperature Precipitation Wind Pressure Humidity
    00:00 +2°C° 0 mm 2 mps 756 mmHg 88%
    01:00 +1°C° 0 mm 2 mps 756 mmHg 90%
    02:00 +1°C° 0 mm 2 mps 757 mmHg 91%
    03:00 +1°C° 0 mm 2 mps 757 mmHg 92%
    04:00 +1°C° 0 mm 2 mps 757 mmHg 92%
    05:00 +1°C° 0 mm 1 mps 757 mmHg 93%
    06:00 +2°C° 0 mm 2 mps 757 mmHg 88%
    07:00 +3°C° 0 mm 2 mps 758 mmHg 83%
    08:00 +4°C° 0 mm 2 mps 758 mmHg 78%
    09:00 +5°C° 0 mm 2 mps 758 mmHg 73%
    10:00 +7°C° 0 mm 3 mps 758 mmHg 67%
    11:00 +8°C° 0 mm 3 mps 758 mmHg 61%
    12:00 +8°C° 0 mm 3 mps 758 mmHg 59%
    13:00 +9°C° 0 mm 3 mps 758 mmHg 58%
    14:00 +8°C° 0 mm 4 mps 758 mmHg 56%
    15:00 +8°C° 0 mm 3 mps 758 mmHg 59%
    16:00 +8°C° 0 mm 3 mps 757 mmHg 63%
    17:00 +7°C° 0 mm 2 mps 757 mmHg 66%
    18:00 +7°C° 0 mm 2 mps 757 mmHg 67%
    19:00 +7°C° 0 mm 1 mps 757 mmHg 68%
    20:00 +6°C° 0 mm 1 mps 757 mmHg 70%
    21:00 +6°C° 0 mm 1 mps 757 mmHg 70%
    22:00 +6°C° 0 mm 1 mps 757 mmHg 70%
    23:00 +6°C° 0 mm 1 mps 757 mmHg 70%

    Tomorrow, 24 September, Tuesday

    Time Temperature Precipitation Wind Pressure Humidity
    00:00 +5°C° 0 mm 1 mps 757 mmHg 74%
    01:00 +4°C° 0 mm 2 mps 757 mmHg 78%
    02:00 +3°C° 0 mm 2 mps 757 mmHg 81%
    03:00 +3°C° 0 mm 2 mps 757 mmHg 81%
    04:00 +3°C° 0 mm 2 mps 757 mmHg 81%
    05:00 +3°C° 0 mm 2 mps 756 mmHg 81%
    06:00 +4°C° 0 mm 2 mps 756 mmHg 79%
    07:00 +4°C° 0 mm 2 mps 756 mmHg 77%
    08:00 +5°C° 0 mm 2 mps 756 mmHg 74%
    09:00 +6°C° 0 mm 2 mps 756 mmHg 70%
    10:00 +8°C° 0 mm 2 mps 756 mmHg 66%
    11:00 +9°C° 0 mm 2 mps 756 mmHg 61%
    12:00 +9°C° 0.1 mm 2 mps 756 mmHg 60%
    13:00 +10°C° 0.1 mm 2 mps 756 mmHg 58%
    14:00 +10°C° 0.1 mm 2 mps 756 mmHg 57%
    15:00 +10°C° 0.1 mm 1 mps 756 mmHg 61%
    16:00 +10°C° 0.1 mm 1 mps 755 mmHg 65%
    17:00 +9°C° 0.1 mm 1 mps 755 mmHg 69%
    18:00 +8°C° 0 mm 1 mps 755 mmHg 73%
    19:00 +5°C° 0 mm 0 mps 755 mmHg 77%
    20:00 +4°C° 0 mm 0 mps 755 mmHg 81%
    21:00 +4°C° 0 mm 1 mps 755 mmHg 82%
    22:00 +4°C° 0 mm 1 mps 755 mmHg 83%
    23:00 +4°C° 0 mm 1 mps 755 mmHg 83%

    Day after tomorrow, 25 September, Wednesday

    Time Temperature Precipitation Wind Pressure Humidity
    00:00 +4°C° 0 mm 1 mps 755 mmHg 83%
    01:00 +4°C° 0 mm 1 mps 755 mmHg 82%
    02:00 +4°C° 0 mm 1 mps 755 mmHg 81%
    03:00 +3°C° 0 mm 1 mps 755 mmHg 81%
    04:00 +3°C° 0 mm 1 mps 755 mmHg 82%
    05:00 +3°C° 0 mm 1 mps 755 mmHg 82%
    06:00 +3°C° 0 mm 2 mps 755 mmHg 80%
    07:00 +4°C° 0 mm 2 mps 755 mmHg 78%
    08:00 +5°C° 0 mm 2 mps 754 mmHg 75%
    09:00 +7°C° 0 mm 1 mps 755 mmHg 71%
    10:00 +8°C° 0 mm 1 mps 755 mmHg 67%
    11:00 +9°C° 0 mm 1 mps 755 mmHg 63%
    12:00 +10°C° 0 mm 1 mps 755 mmHg 62%
    13:00 +10°C° 0 mm 1 mps 754 mmHg 62%
    14:00 +10°C° 0 mm 1 mps 754 mmHg 62%
    15:00 +9°C° 0 mm 1 mps 754 mmHg 67%
    16:00 +9°C° 0 mm 1 mps 754 mmHg 72%
    17:00 +8°C° 0 mm 1 mps 754 mmHg 77%
    18:00 +8°C° 0 mm 1 mps 754 mmHg 79%
    19:00 +6°C° 0 mm 2 mps 754 mmHg 80%
    20:00 +6°C° 0 mm 2 mps 754 mmHg 82%
    21:00 +6°C° 0 mm 2 mps 754 mmHg 82%
    22:00 +6°C° 0 mm 2 mps 754 mmHg 82%
    23:00 +6°C° 0 mm 2 mps 754 mmHg 82%

    26 September, Thursday

    Time Temperature Precipitation Wind Pressure Humidity
    00:00 +5°C° 0 mm 2 mps 754 mmHg 84%
    01:00 +5°C° 0 mm 2 mps 755 mmHg 86%
    02:00 +4°C° 0 mm 2 mps 755 mmHg 88%
    03:00 +4°C° 0 mm 2 mps 755 mmHg 87%
    04:00 +4°C° 0 mm 2 mps 754 mmHg 87%
    05:00 +4°C° 0 mm 2 mps 754 mmHg 87%
    06:00 +5°C° 0 mm 2 mps 754 mmHg 85%
    07:00 +5°C° 0 mm 2 mps 754 mmHg 82%
    08:00 +6°C° 0 mm 2 mps 754 mmHg 80%
    09:00 +7°C° 0 mm 2 mps 755 mmHg 74%
    10:00 +9°C° 0 mm 2 mps 755 mmHg 68%
    11:00 +10°C° 0 mm 2 mps 755 mmHg 63%
    12:00 +12°C° 0 mm 2 mps 755 mmHg 61%
    13:00 +13°C° 0 mm 2 mps 754 mmHg 59%
    14:00 +13°C° 0 mm 2 mps 754 mmHg 57%
    15:00 +12°C° 0 mm 2 mps 754 mmHg 61%
    16:00 +12°C° 0 mm 2 mps 754 mmHg 65%
    17:00 +10°C° 0 mm 2 mps 754 mmHg 70%
    18:00 +9°C° 0 mm 2 mps 754 mmHg 73%
    19:00 +8°C° 0 mm 2 mps 754 mmHg 77%
    20:00 +6°C° 0 mm 2 mps 755 mmHg 81%
    21:00 +6°C° 0 mm 2 mps 755 mmHg 84%
    22:00 +5°C° 0 mm 2 mps 755 mmHg 86%
    23:00 +5°C° 0 mm 1 mps 755 mmHg 89%

    27 September, Friday

    Time Temperature Precipitation Wind Pressure Humidity
    00:00 +5°C° 0 mm 1 mps 755 mmHg 90%
    01:00 +5°C° 0 mm 1 mps 755 mmHg 91%
    02:00 +4°C° 0 mm 1 mps 755 mmHg 92%
    03:00 +4°C° 0 mm 1 mps 755 mmHg 93%
    04:00 +4°C° 0 mm 1 mps 755 mmHg 93%
    05:00 +3°C° 0 mm 1 mps 755 mmHg 94%
    06:00 +4°C° 0 mm 1 mps 755 mmHg 89%
    07:00 +5°C° 0 mm 1 mps 755 mmHg 85%
    08:00 +6°C° 0 mm 1 mps 755 mmHg 81%
    09:00 +8°C° 0 mm 1 mps 756 mmHg 75%
    10:00 +10°C° 0 mm 1 mps 756 mmHg 68%
    11:00 +12°C° 0 mm 1 mps 756 mmHg 62%
    12:00 +12°C° 0 mm 1 mps 756 mmHg 60%
    13:00 +13°C° 0 mm 1 mps 755 mmHg 57%
    14:00 +14°C° 0 mm 1 mps 755 mmHg 55%
    15:00 +13°C° 0 mm 1 mps 755 mmHg 60%
    16:00 +12°C° 0 mm 1 mps 755 mmHg 66%
    17:00 +11°C° 0 mm 1 mps 755 mmHg 71%
    18:00 +10°C° 0 mm 1 mps 755 mmHg 76%
    19:00 +8°C° 0 mm 1 mps 755 mmHg 81%
    20:00 +6°C° 0 mm 2 mps 755 mmHg 86%
    21:00 +6°C° 0 mm 2 mps 755 mmHg 88%
    22:00 +5°C° 0 mm 2 mps 755 mmHg 90%
    23:00 +5°C° 0 mm 2 mps 755 mmHg 93%

    28 September, Saturday

    Time Temperature Precipitation Wind Pressure Humidity
    00:00 +5°C° 0 mm 2 mps 755 mmHg 94%
    01:00 +5°C° 0 mm 2 mps 755 mmHg 95%
    02:00 +5°C° 0 mm 2 mps 755 mmHg 96%
    03:00 +5°C° 0 mm 2 mps 754 mmHg 96%
    04:00 +5°C° 0 mm 2 mps 754 mmHg 96%
    05:00 +5°C° 0 mm 3 mps 754 mmHg 96%
    06:00 +7°C° 0 mm 3 mps 754 mmHg 93%
    07:00 +8°C° 0 mm 3 mps 753 mmHg 90%
    08:00 +8°C° 0 mm 4 mps 753 mmHg 87%
    09:00 +10°C° 0 mm 4 mps 753 mmHg 83%
    10:00 +10°C° 0 mm 5 mps 752 mmHg 79%
    11:00 +13°C° 0 mm 5 mps 752 mmHg 75%
    12:00 +12°C° 0.3 mm 5 mps 751 mmHg 79%
    13:00 +12°C° 0.3 mm 5 mps 750 mmHg 82%
    14:00 +12°C° 0.3 mm 5 mps 750 mmHg 86%
    15:00 +12°C° 1.3 mm 5 mps 749 mmHg 89%
    16:00 +12°C° 1.3 mm 5 mps 749 mmHg 91%
    17:00 +10°C° 1.3 mm 5 mps 748 mmHg 94%
    18:00 +12°C° 0.1 mm 5 mps 748 mmHg 94%
    19:00 +12°C° 0.1 mm 5 mps 747 mmHg 94%
    20:00 +12°C° 0.1 mm 4 mps 747 mmHg 95%
    21:00 +12°C° 0.1 mm 4 mps 747 mmHg 95%
    22:00 +12°C° 0.1 mm 4 mps 747 mmHg 95%
    23:00 +12°C° 0.1 mm 4 mps 747 mmHg 95%
    Show more